Starlink 35981

operational
NORAD ID: 66598 Int'l Des: 2025-270 Owner: SPXS Country: US Constellation: starlink
LEOCIRCULAR

Starlink 35981について

説明を読み込み中...

リアルタイム位置

3D地球を読み込み中...

次回通過

高度履歴

Altitude vs Time

uPlot chart will show altitude changes over time

軌道要素

1 66598U 25270L 26061.12924190 .00032826 00000-0 11959-2 0 9991
2 66598 42.9992 98.5231 0001975 159.3437 200.7494 15.27613353 16406
Epoch: Mar 2, 2026 • Age: 40 hours

現在のステータス

高度 493.1 km
速度 7.62 km/s
衛星直下点 -37.04°S, 81.78°W
打ち上げ日 Nov 22, 2025
運用期間 0.2 years
タイプ internet

技術仕様

分類 Payload
質量 575.00 kg
乾燥質量 530.00 kg
総質量 575.00 kg
長さ 0.30 m
直径 4.10 m
スパン 29.00 m
形状 Box + pan
製造者 SPXS
バスタイプ Starlink V2MO
フェーズステータス In Orbit
所有者/国 SPXS/US

大規模コンステレーション

Loading constellations...